AC4VM Weather Reports


Display with metric or nautical units.
time (UTC)temp
F
wind
direction
speed
MPH
gust
MPH
rain 1hr
in
rain 24hr
in
rain mn
in
humidity
%
barometer
mb
20260508224535 68 244 2.0 5.0 0.00 0.00 0.00 45 1011.3
20260508223025 68 275 3.0 5.0 0.00 0.00 0.00 43 1011.3
20260508221537 68 266 5.0 12.0 0.00 0.00 0.00 43 1011.5
20260508220022 68 231 3.0 10.0 0.00 0.00 0.00 42 1011.5
20260508214521 68 242 1.0 8.0 0.00 0.00 0.00 45 1011.7
20260508213024 69 266 1.0 6.0 0.00 0.00 0.00 45 1011.8
20260508211519 68 252 1.0 4.0 0.00 0.00 0.00 44 1011.9
20260508210019 69 297 2.0 10.0 0.00 0.00 0.00 42 1011.8
20260508204517 70 238 3.0 11.0 0.00 0.00 0.00 43 1011.8
20260508203014 69 241 1.0 6.0 0.00 0.00 0.00 38 1012.2
20260508201514 68 237 3.0 7.0 0.00 0.00 0.00 41 1012.2
20260508200014 68 271 1.0 6.0 0.00 0.00 0.00 43 1012.3
20260508194509 68 89 3.0 8.0 0.00 0.00 0.00 42 1012.6
20260508193007 68 269 1.0 5.0 0.00 0.00 0.00 41 1013.0
20260508191503 69 269 3.0 11.0 0.00 0.00 0.00 47 1013.6
20260508190001 69 217 2.0 10.0 0.00 0.00 0.00 44 1013.9
20260508184559 68 281 1.0 8.0 0.00 0.00 0.00 41 1013.9
20260508183057 68 102 7.0 13.0 0.00 0.00 0.00 39 1014.2
20260508181554 67 114 1.0 9.0 0.00 0.00 0.00 44 1014.3
20260508180053 67 100 3.0 7.0 0.00 0.00 0.00 45 1014.6
20260508174553 66 81 2.0 8.0 0.00 0.00 0.00 44 1014.5
20260508173051 65 223 0.0 4.0 0.00 0.00 0.00 48 1014.8
20260508171555 65 260 3.0 7.0 0.00 0.00 0.00 43 1015.1
20260508170057 66 285 4.0 8.0 0.00 0.00 0.00 45 1015.5
20260508164550 65 229 1.0 7.0 0.00 0.00 0.00 48 1015.8
20260508163048 65 62 4.0 7.0 0.00 0.00 0.00 50 1015.8
20260508161546 64 358 1.0 8.0 0.00 0.00 0.00 46 1016.2
20260508160048 64 86 3.0 6.0 0.00 0.00 0.00 49 1016.5
20260508154544 63 96 3.0 5.0 0.00 0.00 0.00 50 1016.5
20260508153043 63 85 3.0 7.0 0.00 0.00 0.00 50 1016.6
20260508151541 62 262 3.0 5.0 0.00 0.00 0.00 52 1016.9
20260508150042 61 234 1.0 7.0 0.00 0.00 0.00 58 1017.1
20260508144538 60 317 0.0 5.0 0.00 0.00 0.00 62 1017.0
20260508143035 60 93 2.0 4.0 0.00 0.00 0.00 67 1017.0
20260508141532 59 21 2.0 5.0 0.00 0.00 0.00 68 1017.2
20260508140030 58 53 0.0 3.0 0.00 0.00 0.00 73 1017.4
20260508134527 57 287 1.0 3.0 0.00 0.00 0.00 72 1017.4
20260508133027 56 10 2.0 4.0 0.00 0.00 0.00 73 1017.4
20260508131521 55 54 1.0 3.0 0.00 0.00 0.00 75 1017.2
20260508130017 53 5 0.0 0.0 0.00 0.00 0.00 80 1017.1
20260508124514 51 96 0.0 0.0 0.00 0.01 0.00 85 1017.1
20260508123010 49 312 0.0 0.0 0.00 0.01 0.00 90 1017.2
20260508121508 46 316 0.0 0.0 0.00 0.01 0.00 94 1017.2
20260508120006 45 316 0.0 0.0 0.00 0.01 0.00 96 1016.8
20260508114504 43 281 0.0 0.0 0.00 0.01 0.00 96 1016.5
20260508113001 41 281 0.0 0.0 0.00 0.01 0.00 95 1016.4
20260508111601 40 281 0.0 0.0 0.00 0.01 0.00 95 1016.1
20260508104620 40 281 0.0 0.0 0.00 0.02 0.00 95 1015.5
20260508103053 40 281 0.0 0.0 0.00 0.02 0.00 95 1015.4
20260508101552 41 281 0.0 0.0 0.00 0.02 0.00 95 1015.3
20260508100050 40 281 0.0 0.0 0.00 0.02 0.00 95 1015.1
20260508094548 41 281 0.0 0.0 0.00 0.03 0.00 95 1015.1
20260508093047 41 281 0.0 0.0 0.00 0.03 0.00 95 1014.9
20260508091545 41 281 0.0 0.0 0.00 0.03 0.00 95 1014.8
20260508090059 42 281 0.0 0.0 0.00 0.03 0.00 95 1014.7
20260508084541 42 281 0.0 0.0 0.00 0.06 0.00 95 1014.8
20260508083056 43 281 0.0 0.0 0.00 0.06 0.00 95 1014.8
20260508081552 43 281 0.0 0.0 0.00 0.06 0.00 95 1014.8
20260508080041 43 281 0.0 0.0 0.00 0.06 0.00 95 1014.9
20260508074537 43 281 0.0 0.0 0.00 0.07 0.00 95 1014.9
20260508073034 44 281 0.0 1.0 0.00 0.07 0.00 95 1014.8
20260508071534 44 281 0.0 2.0 0.00 0.07 0.00 95 1015.0
20260508070058 44 279 0.0 0.0 0.00 0.07 0.00 95 1014.9
20260508064536 44 279 0.0 1.0 0.00 0.07 0.00 94 1015.1
20260508063029 45 279 0.0 1.0 0.00 0.07 0.00 94 1014.9
20260508061528 45 279 0.0 2.0 0.00 0.07 0.00 94 1014.8
20260508060026 45 279 0.0 0.0 0.00 0.07 0.00 94 1015.0
20260508054524 45 279 0.0 0.0 0.00 0.07 0.00 94 1015.0
20260508053023 46 14 0.0 0.0 0.00 0.07 0.00 94 1014.8
20260508051523 46 265 0.0 1.0 0.00 0.07 0.00 94 1014.9
20260508050022 46 265 1.0 3.0 0.00 0.07 0.00 93 1015.0
20260508044517 47 265 0.0 2.0 0.00 0.07 0.00 93 1014.8
20260508043018 47 265 0.0 0.0 0.00 0.07 0.00 93 1014.7
20260508041513 48 265 0.0 0.0 0.00 0.07 0.00 93 1014.6
20260508040019 48 265 0.0 0.0 0.00 0.07 0.00 92 1014.4
20260508034512 48 265 0.0 2.0 0.00 0.07 0.07 92 1014.3
20260508033006 49 265 0.0 0.0 0.00 0.07 0.07 93 1014.2
20260508031516 49 265 0.0 0.0 0.00 0.07 0.07 93 1014.3
20260508030003 49 265 0.0 0.0 0.00 0.07 0.07 92 1014.2
20260508024603 50 265 0.0 0.0 0.00 0.09 0.07 91 1013.9
20260508023100 50 265 0.0 1.0 0.00 0.09 0.07 91 1013.8
20260508021559 52 266 0.0 2.0 0.00 0.09 0.07 87 1013.8
20260508020056 52 264 1.0 3.0 0.00 0.09 0.07 88 1013.7
20260508014552 52 249 0.0 2.0 0.00 0.11 0.07 88 1013.2
20260508013048 54 249 1.0 3.0 0.00 0.11 0.07 81 1013.0
20260508011547 55 267 1.0 3.0 0.00 0.11 0.07 78 1012.8
20260508010046 56 280 1.0 2.0 0.00 0.11 0.07 80 1012.5
20260508004545 58 253 2.0 4.0 0.00 0.23 0.07 69 1012.3
20260508003045 60 281 1.0 3.0 0.00 0.23 0.07 67 1012.1
20260508001548 61 284 2.0 4.0 0.00 0.23 0.07 63 1011.9
20260508000044 62 295 3.0 5.0 0.00 0.23 0.07 62 1011.8
20260507234544 63 273 2.0 8.0 0.00 0.27 0.07 61 1011.7
20260507233043 63 238 2.0 5.0 0.00 0.27 0.07 61 1011.7
20260507231543 64 265 2.0 4.0 0.00 0.27 0.07 66 1011.7
20260507230041 64 279 3.0 8.0 0.00 0.27 0.07 62 1011.7